Location: Vancouver
(49.2500°N, 123.1330°W)
Time: 00:13:44
(UTC-07:00)

YAOGAN 6 - Visible Passes

Search period start: 26 September 2017 00:00
Search period end: 06 October 2017 00:00
Orbit: 469 x 507 km, 97.1° (Epoch: 25 September)

Date Brightness Start Highest point End Pass type
(mag) Time Alt. Az. Time Alt. Az. Time Alt. Az.
26 Sep 4.3 20:08:16 15° ENE 20:08:49 16° ENE 20:11:06 10° NNE visible
26 Sep 3.8 21:42:44 41° WNW 21:42:44 41° WNW 21:45:34 10° NNW visible
27 Sep 3.0 21:19:24 59° NNW 21:19:24 59° NNW 21:22:26 10° NNW visible
28 Sep 3.1 20:56:05 43° NE 20:56:05 43° NE 20:59:07 10° N visible
28 Sep 5.7 22:30:33 13° WNW 22:30:33 13° WNW 22:31:33 10° NW visible
29 Sep 3.7 20:32:47 26° ENE 20:32:47 26° ENE 20:35:36 10° N visible
29 Sep 5.1 22:07:14 21° WNW 22:07:14 21° WNW 22:09:06 10° NW visible
30 Sep 4.3 20:09:28 16° ENE 20:09:28 16° ENE 20:11:47 10° NNE visible
30 Sep 4.3 21:43:54 32° NW 21:43:54 32° NW 21:46:12 10° NNW visible
01 Oct 3.7 21:20:36 40° NNW 21:20:36 40° NNW 21:23:04 10° NNW visible
02 Oct 3.6 20:57:16 35° NNE 20:57:16 35° NNE 20:59:45 10° N visible
02 Oct 5.9 22:31:43 11° WNW 22:31:43 11° WNW 22:32:08 10° NW visible
03 Oct 4.0 20:33:57 25° NE 20:33:57 25° NE 20:36:15 10° N visible
03 Oct 5.4 22:08:24 17° NW 22:08:24 17° NW 22:09:41 10° NW visible
04 Oct 4.4 20:10:38 16° NE 20:10:38 16° NE 20:12:27 10° NNE visible
04 Oct 4.8 21:45:05 24° NW 21:45:05 24° NW 21:46:48 10° NNW visible
05 Oct 4.9 19:47:19 10° NE 19:47:19 10° NE 19:47:41 10° NE visible
05 Oct 4.3 21:21:45 29° NNW 21:21:45 29° NNW 21:23:41 10° NNW visible
